TimeHST,TemperatureF,Dew PointF,Humidity,Sea Level PressureIn,VisibilityMPH,Wind Direction,Wind SpeedMPH,Gust SpeedMPH,PrecipitationIn,Events,Conditions,WindDirDegrees,DateUTC
12:53 AM,64.9,57.9,78,30.17,10.0,Calm,Calm,-,N/A,,Overcast,0,2013-02-03 10:53:00
1:53 AM,62.1,57.0,84,30.16,10.0,Calm,Calm,-,N/A,,Mostly Cloudy,0,2013-02-03 11:53:00
2:05 AM,62.6,57.2,82,30.14,10.0,Calm,Calm,-,N/A,,Scattered Clouds,0,2013-02-03 12:05:00
2:32 AM,60.8,57.2,88,30.13,10.0,Calm,Calm,-,N/A,,Mostly Cloudy,0,2013-02-03 12:32:00
2:41 AM,60.8,57.2,88,30.13,10.0,Calm,Calm,-,N/A,,Scattered Clouds,0,2013-02-03 12:41:00
2:48 AM,60.8,57.2,88,30.12,10.0,Calm,Calm,-,N/A,,Mostly Cloudy,0,2013-02-03 12:48:00
2:53 AM,61.0,57.0,87,30.14,10.0,Calm,Calm,-,N/A,,Mostly Cloudy,0,2013-02-03 12:53:00
3:29 AM,60.8,57.2,88,30.12,10.0,Calm,Calm,-,N/A,,Scattered Clouds,0,2013-02-03 13:29:00
3:53 AM,61.0,57.0,87,30.14,10.0,Calm,Calm,-,N/A,,Clear,0,2013-02-03 13:53:00
4:53 AM,64.0,57.0,78,30.15,10.0,Variable,3.5,-,N/A,,Clear,0,2013-02-03 14:53:00
5:53 AM,63.0,57.0,81,30.16,10.0,Calm,Calm,-,N/A,,Clear,0,2013-02-03 15:53:00
6:16 AM,62.6,57.2,82,30.15,10.0,Calm,Calm,-,N/A,,Clear,0,2013-02-03 16:16:00
6:53 AM,61.0,57.0,87,30.18,10.0,Calm,Calm,-,N/A,,Clear,0,2013-02-03 16:53:00
7:53 AM,64.0,57.0,78,30.20,10.0,Calm,Calm,-,N/A,,Partly Cloudy,0,2013-02-03 17:53:00
8:53 AM,71.1,59.0,66,30.21,10.0,NE,5.8,-,N/A,,Clear,50,2013-02-03 18:53:00
9:53 AM,73.9,59.0,59,30.22,10.0,Variable,5.8,-,N/A,,Clear,0,2013-02-03 19:53:00
10:53 AM,77.0,57.0,50,30.20,10.0,East,6.9,-,N/A,,Clear,90,2013-02-03 20:53:00
11:53 AM,78.1,55.9,46,30.17,10.0,East,9.2,-,N/A,,Clear,80,2013-02-03 21:53:00
12:53 PM,79.0,57.0,47,30.15,10.0,East,8.1,-,N/A,,Clear,90,2013-02-03 22:53:00
1:53 PM,81.0,57.0,44,30.12,10.0,Variable,4.6,-,N/A,,Clear,0,2013-02-03 23:53:00
2:53 PM,80.1,57.0,45,30.12,10.0,Variable,3.5,-,N/A,,Clear,0,2013-02-04 00:53:00
3:53 PM,79.0,55.9,45,30.12,10.0,NE,8.1,-,N/A,,Clear,50,2013-02-04 01:53:00
4:53 PM,75.9,57.0,52,30.12,10.0,ENE,8.1,-,N/A,,Clear,70,2013-02-04 02:53:00
5:53 PM,73.0,57.0,57,30.14,10.0,Variable,4.6,-,N/A,,Clear,0,2013-02-04 03:53:00
6:38 PM,69.8,55.4,60,30.13,10.0,Variable,3.5,-,N/A,,Scattered Clouds,0,2013-02-04 04:38:00
6:53 PM,70.0,55.9,61,30.15,10.0,Variable,3.5,-,N/A,,Partly Cloudy,0,2013-02-04 04:53:00
7:53 PM,69.1,55.9,63,30.17,10.0,Variable,4.6,-,N/A,,Clear,0,2013-02-04 05:53:00
8:53 PM,68.0,55.9,65,30.17,10.0,Calm,Calm,-,N/A,,Clear,0,2013-02-04 06:53:00
9:53 PM,66.9,55.9,68,30.17,10.0,Calm,Calm,-,N/A,,Clear,0,2013-02-04 07:53:00
10:53 PM,68.0,55.9,65,30.18,10.0,ENE,5.8,-,N/A,,Clear,60,2013-02-04 08:53:00